Find Starlink 34994

NORAD ID: 65924 Int'l Des: 2025-225 Owner: SPXS Country: US Constellation: starlink operational
LEOCIRCULAR

現在のビュー

3D地球を読み込み中...

Starlink 34994について

説明を読み込み中...

次回通過

Passes for default location (London). Set your location on the main map for personalized predictions.

高度履歴

Loading altitude history...

軌道要素

1 65924U 25225Q 26150.02206855 .00017803 00000-0 61156-3 0 9995
2 65924 53.1576 147.6647 0001394 108.1996 251.9156 15.30210963 36863
Epoch: May 30, 2026 • Age: 11 hours

現在のステータス

高度 482.1 km
速度 7.62 km/s
衛星直下点 -22.10°S, 69.25°E
打ち上げ日 Oct 8, 2025
運用期間 0.6 years
タイプ internet

技術仕様

分類 Payload
質量 575.00 kg
乾燥質量 530.00 kg
総質量 575.00 kg
長さ 0.30 m
直径 4.10 m
スパン 29.00 m
形状 Box + pan
製造者 SPXS
バスタイプ Starlink V2MO
フェーズステータス In Orbit
所有者/国 SPXS/US

Most Searched